User: anonymous   Login
Location: Deuil
(48.9767°N, 2.3272°E)
Time: 11:26:30
(UTC+00:00)
Language:

Cosmos 2360 Rocket - Orbit

View from above orbital plane
View from above orbital plane
View from above satellite
View from above satellite

Ground track
Ground track

The orbit data is extracted from the following two-line orbital elements,

1 25407U 98045B   22275.75954546  .00000045  00000-0  46899-4 0  9996
2 25407  71.0097 297.8236 0006188 153.1493 206.9951 14.15869091249595
Epoch (UTC): 02 October 2022 18:13:44
Eccentricity: 0.0006188
inclination: 71.0097°
perigee height: 835 km
apogee height: 844 km
right ascension of ascending node: 297.8236°
argument of perigee: 153.1493°
revolutions per day: 14.15869091
mean anomaly at epoch: 206.9951°
orbit number at epoch: 24959

The dashed part of the orbit path shows where the satellite is in the earth's shadow,  

DLR